Total_Precipitation_Accumulation
0.38 0.42 0.44 0.43 0.46 0.51 0.57 0.67 0.78 0.72 0.53 0.43 0.42 0.42 0.45 0.45 0.44 0.41 0.35 0.35 0.35 0.34 0.34 0.33 0.34 0.37 0.39 0.43 0.52 0.62 0.72 0.83 0.94 1.06 1.17 1.28 1.36 1.40
0.31 0.35 0.39 0.41 0.45 0.51 0.58 0.64 0.74 0.82 0.70 0.48 0.41 0.40 0.42 0.39 0.38 0.34 0.28 0.31 0.30 0.29 0.29 0.30 0.31 0.32 0.33 0.36 0.40 0.46 0.54 0.62 0.72 0.85 0.99 1.14 1.26 1.38
0.30 0.35 0.40 0.43 0.47 0.49 0.53 0.57 0.63 0.71 0.70 0.51 0.42 0.41 0.39 0.34 0.31 0.28 0.24 0.23 0.21 0.22 0.25 0.27 0.28 0.30 0.33 0.35 0.37 0.40 0.45 0.51 0.60 0.70 0.83 0.94 1.05 1.13
0.28 0.33 0.38 0.42 0.45 0.47 0.49 0.51 0.51 0.53 0.60 0.54 0.39 0.36 0.32 0.31 0.32 0.31 0.26 0.23 0.19 0.19 0.22 0.25 0.28 0.30 0.31 0.33 0.38 0.43 0.46 0.49 0.52 0.56 0.63 0.72 0.82 0.92
0.23 0.26 0.31 0.34 0.36 0.35 0.35 0.36 0.38 0.42 0.48 0.51 0.40 0.34 0.30 0.28 0.29 0.27 0.24 0.21 0.19 0.19 0.24 0.26 0.27 0.29 0.32 0.36 0.40 0.44 0.46 0.49 0.52 0.54 0.56 0.61 0.70 0.80
0.22 0.24 0.25 0.25 0.25 0.24 0.25 0.27 0.33 0.38 0.41 0.46 0.43 0.35 0.31 0.27 0.27 0.23 0.20 0.18 0.19 0.19 0.23 0.27 0.30 0.34 0.36 0.39 0.42 0.44 0.46 0.50 0.56 0.61 0.66 0.70 0.74 0.79
0.21 0.20 0.19 0.19 0.19 0.19 0.22 0.27 0.33 0.40 0.48 0.54 0.51 0.44 0.36 0.30 0.25 0.25 0.30 0.29 0.27 0.24 0.25 0.27 0.32 0.37 0.40 0.43 0.46 0.46 0.48 0.53 0.60 0.69 0.77 0.81 0.84 0.87
0.20 0.19 0.18 0.18 0.16 0.17 0.20 0.28 0.41 0.54 0.64 0.68 0.65 0.55 0.41 0.34 0.34 0.39 0.47 0.56 0.49 0.30 0.33 0.35 0.37 0.43 0.43 0.45 0.51 0.54 0.55 0.58 0.62 0.67 0.73 0.76 0.78 0.83
0.15 0.14 0.13 0.12 0.12 0.11 0.14 0.25 0.34 0.44 0.51 0.54 0.53 0.41 0.37 0.36 0.48 0.64 0.67 0.72 0.58 0.37 0.43 0.49 0.41 0.43 0.44 0.48 0.57 0.57 0.54 0.54 0.56 0.59 0.61 0.62 0.62 0.65
0.11 0.10 0.10 0.09 0.09 0.13 0.20 0.28 0.23 0.19 0.24 0.29 0.33 0.34 0.37 0.44 0.61 0.85 0.92 0.90 0.71 0.53 0.50 0.55 0.42 0.38 0.40 0.44 0.51 0.50 0.46 0.46 0.49 0.52 0.53 0.52 0.52 0.54
0.07 0.07 0.08 0.07 0.09 0.21 0.33 0.35 0.24 0.14 0.16 0.24 0.33 0.36 0.37 0.40 0.48 0.74 0.93 1.00 0.84 0.55 0.47 0.55 0.51 0.47 0.45 0.42 0.44 0.48 0.46 0.44 0.44 0.46 0.48 0.48 0.49 0.53
0.06 0.06 0.06 0.08 0.15 0.27 0.32 0.33 0.27 0.18 0.22 0.25 0.26 0.27 0.26 0.30 0.39 0.58 1.01 1.40 1.19 0.82 0.50 0.61 0.62 0.66 0.77 0.48 0.42 0.45 0.45 0.43 0.42 0.43 0.45 0.47 0.49 0.51
0.09 0.06 0.05 0.13 0.22 0.26 0.24 0.20 0.25 0.33 0.29 0.26 0.28 0.30 0.31 0.33 0.37 0.48 0.79 1.43 1.68 1.21 0.69 1.00 1.08 0.82 0.94 0.67 0.47 0.46 0.48 0.52 0.53 0.51 0.48 0.48 0.47 0.51
0.08 0.06 0.07 0.15 0.16 0.13 0.11 0.16 0.28 0.30 0.23 0.31 0.37 0.38 0.38 0.41 0.46 0.54 0.63 0.81 1.09 1.18 0.87 1.11 1.38 1.01 1.03 0.78 0.50 0.47 0.53 0.65 0.72 0.68 0.60 0.55 0.50 0.51
0.08 0.10 0.12 0.10 0.07 0.06 0.09 0.15 0.16 0.15 0.26 0.46 0.53 0.53 0.55 0.61 0.66 0.68 0.65 0.65 0.68 0.70 0.72 0.78 0.98 0.96 1.04 0.95 0.68 0.59 0.68 0.73 0.85 0.89 0.78 0.62 0.52 0.49
0.09 0.09 0.06 0.04 0.04 0.06 0.10 0.10 0.09 0.16 0.38 0.57 0.62 0.60 0.62 0.67 0.74 0.82 0.89 0.84 0.82 0.70 0.61 0.58 0.65 0.86 0.94 0.73 0.79 0.78 0.84 1.05 1.16 1.17 0.93 0.70 0.58 0.52
0.11 0.04 0.02 0.03 0.04 0.06 0.09 0.10 0.11 0.19 0.31 0.42 0.56 0.61 0.61 0.66 0.75 0.85 0.95 0.94 0.87 0.71 0.56 0.46 0.43 0.48 0.60 0.66 0.69 0.67 0.80 0.98 1.16 1.18 0.95 0.83 0.74 0.64
0.09 0.04 0.05 0.07 0.10 0.13 0.15 0.15 0.16 0.23 0.38 0.53 0.63 0.72 0.80 0.87 0.92 0.92 0.91 0.87 0.76 0.59 0.46 0.36 0.33 0.35 0.31 0.31 0.51 0.72 0.79 0.93 1.07 0.99 0.73 0.76 0.85 0.75
0.08 0.09 0.13 0.16 0.19 0.21 0.23 0.27 0.31 0.36 0.55 0.72 0.83 0.89 0.98 1.02 1.00 0.92 0.79 0.66 0.51 0.36 0.25 0.20 0.29 0.56 0.58 0.33 0.27 0.55 0.93 1.00 0.87 0.79 0.65 0.65 0.85 0.81
0.12 0.18 0.23 0.26 0.26 0.28 0.32 0.41 0.49 0.54 0.66 0.80 0.90 0.98 1.11 1.15 1.01 0.80 0.62 0.49 0.38 0.24 0.13 0.07 0.15 0.51 0.91 0.82 0.60 0.54 0.70 0.96 1.04 0.93 0.67 0.57 0.66 0.65
0.13 0.20 0.25 0.27 0.30 0.33 0.39 0.49 0.64 0.77 0.85 0.97 1.02 1.10 1.15 1.09 0.84 0.57 0.38 0.24 0.22 0.20 0.17 0.08 0.08 0.22 0.50 0.63 0.53 0.41 0.54 0.70 0.91 1.15 0.98 0.77 0.60 0.48
0.09 0.15 0.19 0.24 0.31 0.39 0.48 0.60 0.77 0.86 0.94 1.02 1.09 1.11 0.99 0.83 0.63 0.39 0.27 0.25 0.22 0.20 0.17 0.09 0.04 0.09 0.26 0.52 0.49 0.37 0.40 0.41 0.39 0.43 0.67 0.99 1.30 1.29
0.09 0.14 0.18 0.24 0.34 0.46 0.58 0.66 0.78 0.89 1.01 1.11 1.08 0.92 0.73 0.53 0.34 0.29 0.27 0.26 0.26 0.21 0.16 0.11 0.06 0.07 0.16 0.30 0.40 0.37 0.32 0.30 0.25 0.29 0.50 0.58 0.78 1.01